This demonstration page uses our WeatherBlox Daily Observations layout. Learn more.

Left ArrowRight Arrow

40.92945, -100.16068

Hourly Observations for October 6, 2020

Temp ( °F °C ) Dew Point ( °F °C ) Humidity (%) Winds ( mph kmh ) Pressure ( in mb ) Visibility ( mi km ) Precip ( " mm )
12:15 am 00:15 Clear 49 9.4 40 4.7 73 73 WNW 7 11 30.11 1020 10 16.0934 0 0
12:35 am 00:35 Clear 47 8.6 40 4.5 76 76 W 6 9 30.11 1020 10 16.0934 0 0
12:55 am 00:55 Clear 47 8.5 40 4.6 77 77 WNW 9 15 30.12 1020 10 16.0934 0 0
1:15 am 01:15 Clear 48 8.7 40 4.5 75 75 WNW 3 6 30.11 1020 10 16.0934 0 0
1:35 am 01:35 Clear 46 8 40 4.2 77 77 WNW 7 11 30.11 1020 10 16.0934 0 0
1:55 am 01:55 Clear 46 7.9 40 4.6 80 80 NNW 3 6 30.11 1020 10 16.0934 0 0
2:15 am 02:15 Clear 46 8 40 4.5 79 79 WNW 7 11 30.11 1020 10 16.0934 0 0
2:35 am 02:35 Clear 46 7.8 40 4.5 80 80 WNW 7 11 30.1 1019 10 16.0934 0 0
2:55 am 02:55 Clear 45 7.3 40 4.3 81 81 WNW 7 11 30.11 1020 10 16.0934 0 0
3:15 am 03:15 Clear 46 7.5 40 4.5 81 81 N 3 6 30.1 1019 10 16.0934 0 0
3:35 am 03:35 Clear 44 6.7 39 3.9 83 83 WNW 3 6 30.11 1020 10 16.0934 0 0
3:55 am 03:55 Clear 44 6.8 40 4.2 84 84 W 3 6 30.1 1019 10 16.0934 0 0
4:15 am 04:15 Clear 43 6 39 3.7 85 85 W 6 9 30.12 1020 10 16.0934 0 0
4:35 am 04:35 Clear 44 6.5 39 4.1 85 85 WNW 5 7 30.11 1020 10 16.0934 0 0
4:55 am 04:55 Clear 43 6 39 4 87 87 W 6 9 30.13 1020 10 16.0934 0 0
5:15 am 05:15 Clear 45 7 40 4.7 85 85 W 8 13 30.13 1020 10 16.0934 0 0
5:35 am 05:35 Clear 45 7.2 40 4.7 84 84 W 8 13 30.14 1021 10 16.0934 0 0
5:55 am 05:55 Clear 45 7.4 40 4.6 83 83 WNW 7 11 30.14 1021 10 16.0934 0 0
6:15 am 06:15 Clear 44 6.8 40 4.5 85 85 NW 3 6 30.14 1021 10 16.0934 0 0
6:35 am 06:35 Clear 44 6.6 40 4.4 86 86 WNW 5 7 30.14 1021 10 16.0934 0 0
6:55 am 06:55 Clear 43 6 39 4.1 88 88 NW 5 7 30.15 1021 10 16.0934 0 0
7:15 am 07:15 Clear 42 5.5 38 3.6 88 88 WNW 3 6 30.15 1021 10 16.0934 0 0
7:35 am 07:35 Clear 41 5.2 39 3.7 90 90 W 5 7 30.16 1021 7 11.26538 0 0
7:55 am 07:55 Sunny 41 5.2 38 3.5 89 89 W 5 7 30.17 1022 7 11.26538 0 0
8:15 am 08:15 Sunny 42 5.5 39 3.8 89 89 Calm 30.16 1021 7 11.26538 0 0
8:35 am 08:35 Sunny 44 6.7 40 4.6 87 87 W 3 6 30.15 1021 10 16.0934 0 0
8:55 am 08:55 Sunny 47 8.1 41 5.2 82 82 WNW 6 9 30.15 1021 7 11.26538 0 0
9:15 am 09:15 Sunny 49 9.6 42 5.7 77 77 WNW 5 7 30.13 1020 7 11.26538 0 0
9:35 am 09:35 Sunny 52 10.9 43 6.3 73 73 WNW 5 7 30.12 1020 10 16.0934 0 0
9:55 am 09:55 Sunny 54 12.4 44 6.8 69 69 WNW 5 7 30.1 1019 10 16.0934 0 0
10:15 am 10:15 Sunny 57 14 45 7.4 65 65 W 5 7 30.08 1019 7 11.26538 0 0
10:35 am 10:35 Sunny 60 15.5 46 7.6 60 60 W 6 9 30.07 1018 10 16.0934 0 0
10:55 am 10:55 Sunny 64 18 46 7.6 51 51 WSW 5 7 30.04 1017 10 16.0934 0 0
11:15 am 11:15 Sunny 69 20.5 46 8 45 45 SW 9 15 30.02 1017 10 16.0934 0 0
11:35 am 11:35 Sunny 73 22.8 45 7.4 37 37 SW 17 28 29.98 1015 10 16.0934 0 0
11:55 am 11:55 Sunny 74 23.1 45 7 36 36 SW 17 28 29.98 1015 10 16.0934 0 0
12:15 pm 12:15 Sunny 74 23.4 44 6.6 34 34 WSW 13 20 29.96 1015 10 16.0934 0 0
12:55 pm 12:55 Sunny 76 24.6 43 6.3 31 31 SW 17 28 29.93 1014 10 16.0934 0 0
1:15 pm 13:15 Sunny 78 25.3 43 6.2 29 29 SW 13 20 29.92 1013 10 16.0934 0 0
1:35 pm 13:35 Sunny 79 26 43 6 28 28 SW 16 26 29.9 1013 10 16.0934 0 0
1:55 pm 13:55 Sunny 81 27 41 5.2 25 25 WSW 13 20 29.88 1012 10 16.0934 0 0
2:15 pm 14:15 Sunny 81 27.4 41 5.2 24 24 WSW 17 28 29.87 1012 10 16.0934 0 0
2:35 pm 14:35 Sunny 82 27.7 40 4.4 22 22 SW 17 28 29.85 1011 10 16.0934 0 0
2:55 pm 14:55 Sunny 83 28.4 40 4.5 22 22 SW 20 31 29.83 1010 10 16.0934 0 0
3:15 pm 15:15 Sunny 84 28.8 40 4.5 21 21 WSW 13 20 29.83 1010 10 16.0934 0 0
3:35 pm 15:35 Sunny 85 29.6 39 3.7 19 19 WSW 12 19 29.82 1010 10 16.0934 0 0
3:55 pm 15:55 Sunny 86 30.1 38 3.1 18 18 WSW 14 22 29.81 1009 10 16.0934 0 0
4:15 pm 16:15 Sunny 87 30.4 37 3 17 17 WSW 13 20 29.8 1009 10 16.0934 0 0
4:35 pm 16:35 Sunny 87 30.6 37 2.5 17 17 WSW 8 13 29.79 1009 10 16.0934 0 0
4:55 pm 16:55 Sunny 87 30.6 36 2.3 16 16 WSW 10 17 29.78 1009 10 16.0934 0 0
5:15 pm 17:15 Sunny 87 30.5 37 2.5 17 17 SW 12 19 29.78 1008 10 16.0934 0 0
5:35 pm 17:35 Sunny 87 30.6 36 2.2 16 16 W 10 17 29.77 1008 10 16.0934 0 0
5:55 pm 17:55 Sunny 87 30.3 35 1.9 16 16 W 7 11 29.77 1008 10 16.0934 0 0
6:15 pm 18:15 Sunny 85 29.3 35 1.6 17 17 W 7 11 29.79 1009 10 16.0934 0 0
6:35 pm 18:35 Sunny 81 27.4 35 1.6 19 19 W 5 7 29.79 1009 10 16.0934 0 0
6:55 pm 18:55 Sunny 77 25.1 35 1.7 22 22 WSW 5 7 29.81 1009 10 16.0934 0 0
7:15 pm 19:15 Clear 73 23 36 2.3 26 26 SW 5 7 29.84 1010 7 11.26538 0 0
7:35 pm 19:35 Clear 71 21.7 38 3.2 30 30 SW 3 6 29.85 1011 7 11.26538 0 0
7:55 pm 19:55 Hazy 68 19.9 37 2.9 33 33 SSW 3 6 29.86 1011 5 8.0467 0 0
8:15 pm 20:15 Hazy 67 19.5 37 2.7 33 33 Calm 29.88 1012 5 8.0467 0 0
8:35 pm 20:35 Hazy 63 17 38 3.6 41 41 Calm 29.9 1012 5 8.0467 0 0
8:55 pm 20:55 Hazy 58 14.7 38 3.4 47 47 WSW 5 7 29.92 1013 5 8.0467 0 0
9:15 pm 21:15 Clear 59 14.8 37 2.5 44 44 SW 6 9 29.92 1013 7 11.26538 0 0
9:35 pm 21:35 Clear 57 14 38 3.1 48 48 SW 5 7 29.91 1013 7 11.26538 0 0
9:55 pm 21:55 Clear 57 13.9 38 3.6 50 50 Calm 29.92 1013 7 11.26538 0 0
10:15 pm 22:15 Clear 55 12.9 38 3.5 53 53 Calm 29.93 1014 7 11.26538 0 0
10:35 pm 22:35 Clear 54 12.4 39 3.8 56 56 NE 5 7 29.93 1014 7 11.26538 0 0
10:55 pm 22:55 Clear 54 12.4 39 4 57 57 Calm 29.94 1014 7 11.26538 0 0
11:15 pm 23:15 Clear 50 10.2 39 4.1 66 66 Calm 29.96 1015 7 11.26538 0 0
11:35 pm 23:35 Clear 50 9.8 38 3.4 65 65 Calm 29.96 1015 7 11.26538 0 0
11:55 pm 23:55 Clear 49 9.5 37 2.9 64 64 Calm 29.97 1015 7 11.26538 0 0

Powered by AerisWeather